Location: Unspecified
(0.0000°N, 0.0000°E)
Time: 19:34:24
(UTC+00:00)

USA 144 - Visible Passes

Search period start: 30 May 2024 00:00
Search period end: 09 June 2024 00:00
Orbit: 2685 x 3135 km, 63.4° (Epoch: 30 November)

Date Brightness Start Highest point End Pass type
(mag) Time Alt. Az. Time Alt. Az. Time Alt. Az.
30 May 5.4 03:43:05 10° S 03:57:30 49° ESE 04:12:42 10° NE visible
31 May 6.4 02:05:28 10° SE 02:09:28 11° ESE 02:13:30 10° E visible
31 May 4.8 04:29:02 10° SSW 04:44:22 85° ESE 05:00:48 10° NNE visible
31 May 6.3 18:13:41 10° NW 18:27:15 31° WSW 18:40:19 10° S visible
01 Jun 5.9 02:44:37 10° SSE 02:56:57 29° ESE 03:09:42 10° ENE visible
01 Jun 5.0 05:16:31 10° SW 05:31:19 57° WNW 05:47:18 10° N visible
01 Jun 6.6 19:08:28 10° W 19:14:42 13° WSW 19:20:51 10° SW visible
02 Jun 5.2 03:30:03 13° S 03:43:56 56° ESE 03:59:34 10° NE visible
03 Jun 6.3 01:48:44 10° SE 01:56:06 15° ESE 02:03:35 10° E visible
03 Jun 4.7 04:16:20 13° SSW 04:30:47 86° WNW 04:47:16 10° NNE visible
03 Jun 6.3 18:01:11 10° WNW 18:13:45 27° WSW 18:25:55 10° SSW visible
04 Jun 5.7 02:33:57 19° SSE 02:43:26 34° ESE 02:57:04 10° NE visible
04 Jun 5.0 05:03:20 10° SW 05:17:47 50° WNW 05:33:25 10° N visible
05 Jun 5.0 03:20:09 26° S 03:30:21 64° ESE 03:46:20 10° NNE visible
06 Jun 6.1 01:37:41 16° SE 01:42:42 18° ESE 01:52:15 10° ENE visible
06 Jun 4.7 04:06:18 24° SSW 04:17:13 77° WNW 04:33:40 10° NNE visible
07 Jun 5.4 02:23:47 30° SSE 02:29:54 40° ESE 02:44:15 10° NE visible
07 Jun 5.1 04:52:24 16° SW 05:04:17 43° WNW 05:19:28 10° N visible
08 Jun 4.8 03:09:50 41° S 03:16:46 72° ESE 03:33:00 10° NNE visible
